www.pogodaiklimat.ru
Время
(UTC), дата
06 10.10
09 10.10
12 10.10
15 10.10
18 10.10
21 10.10
00 11.10
03 11.10
06 11.10
09 11.10
12 11.10
15 11.10
18 11.10
21 11.10
00 12.10
03 12.10
06 12.10
09 12.10
12 12.10
15 12.10
18 12.10
21 12.10
00 13.10
03 13.10
06 13.10
09 13.10
12 13.10
15 13.10
18 13.10
21 13.10
00 14.10
03 14.10
06 14.10
09 14.10
12 14.10
15 14.10
18 14.10
21 14.10
00 15.10
03 15.10
06 15.10
09 15.10
12 15.10
15 15.10
18 15.10
21 15.10
00 16.10
03 16.10
06 16.10
09 16.10
12 16.10
15 16.10
18 16.10
21 16.10
00 17.10
03 17.10
Ветер
(напр.,м/с)
Видим. Явления Облачность Т
(С)
Тd
(С)
f
(%)
Тe
(С)
Тes
(С)
Комфортность P
(гПа)
Po
(гПа)
Тmin
(С)
Tmax
(С)
R
(мм)
R24
(мм)
S
(см)
В 2 20 км 10/3 600 м
[Sc Ac lent Cs]
+16.3 +10.4 68 +16 +18 тепло 1011.4 1007.5
СВ 1 20 км 10/6 600 м
[Cb cap Ac trans Ci sp]
+12.0 +10.6 91 +12 +12 тепло 1012.2 1008.2 +18.9
СЗ 1 20 км 10/6 600 м
[Cb cap As trans]
+11.0 +10.8 99 +11 +11 тепло 1012.9 1008.9
З 1 20 км 10/6 600 м
[Cb cap Ac trans Ci sp]
+10.9 +10.6 98 +10 +10 тепло 1012.8 1008.8
З 2 20 км 4/3 600 м
[Cb cap Ci fib]
+9.0 +8.8 99 +7 +7 тепло 1012.9 1008.9
З 2 20 км 3/3 600 м
[Cb cap]
+10.9 +7.9 82 +10 +10 тепло 1013.8 1009.8 +8.7
З 2 20 км ясно +16.7 +9.2 61 +17 +20 тепло 1015.5 1011.5
ЮЗ 2 20 км 8/3 600 м
[Cb cap Ac trans Ci fib]
+20.8 +6.1 38 +22 +26 комфорт 1015.3 1011.4
З 3
{10}
20 км 6/0
[Ac lent Ci fib]
+20.1 +0.8 28 +21 +22 комфорт 1015.9 1011.9
Ю 1 20 км 9/0
[Ac lent Cc]
+13.9 -6.1 24 +15 +15 тепло 1018.6 1014.6 +20.9
ЮЗ 2 20 км 1/1 600 м
[Sc]
+11.8 -6.5 27 +11 +11 тепло 1020.8 1016.8
Ю 1 20 км ясно +10.0 -5.6 33 +10 +10 тепло 1022.6 1018.5
З 1 20 км ясно +6.5 -8.4 34 +6 +6 тепло 1023.8 1019.7
З 1 50 км 3/3 600 м
[Sc]
+3.9 -8.7 39 +3 +3 по сезону 1026.0 1021.8 +2.9
З 2 50 км 3/1 600 м
[Sc Ci fib]
+10.0 -9.5 24 +9 +12 тепло 1026.3 1022.2 +2.0
В 4 50 км 4/1 600 м
[Sc Ac trans Ci sp]
+13.5 -4.1 29 +12 +16 тепло 1025.0 1021.0
ЮВ 2 50 км 3/1 600 м
[Sc Ac trans]
+11.0 -4.7 33 +10 +13 тепло 1023.4 1019.3
СЗ 1 50 км 3/3 600 м
[Sc]
+6.0 -2.6 54 +5 +5 тепло 1023.8 1019.6 +14.4
ЮЗ 1 50 км 3/1 600 м
[Sc Ci sp]
+5.1 -13.9 24 +5 +5 тепло 1023.9 1019.7
З 4 50 км 6/1 600 м
[Sc Cs]
+4.9 -15.6 21 +2 +2 по сезону 1023.1 1019.0
З 5 50 км 1/1 600 м
[Sc]
+3.9 -15.9 22 0 0 по сезону 1022.2 1018.1
СЗ 3
{10}
50 км ясно +2.8 -16.6 22 0 0 по сезону 1022.0 1017.8 +2.7
З 4
{10}
50 км ясно +6.6 -16.5 17 +4 +6 по сезону 1023.5 1019.4
З 2
{13}
50 км ясно +11.4 -16.6 12 +11 +19 тепло 1022.6 1018.5
ЮВ 5 50 км ясно +10.0 -6.1 32 +8 +9 тепло 1021.9 1017.8
СЗ 2 50 км 3/0
[Ci fib]
+6.1 -2.3 55 +4 +4 по сезону 1023.3 1019.1 +13.0
З 2 50 км 1/0
[Ci fib]
+2.4 -6.1 53 -0 -0 по сезону 1024.7 1020.5
СЗ 2 50 км 8/3 600 м
[Sc Ac trans]
+5.8 -11.1 28 +4 +4 по сезону 1024.9 1020.7
З 1 50 км 8/6 600 м
[Sc Ac trans]
+3.0 -6.8 49 +2 +2 по сезону 1024.7 1020.5
З 3
{10}
10 км слаб. ливневой дождь 10/8 600 м
[Cb cap As op]
+1.9 -0.1 87 -2 -2 по сезону 1025.4 1021.2 +1.9 0.4
З 2 20 км в посл. час ливневой дождь 10/8 600 м
[Cb cap As op]
+2.3 +0.6 89 -1 -1 по сезону 1025.4 1021.2 +1.5
ЮЗ 2 20 км 10/6 600 м
[Cb cap As trans]
+6.5 -1.8 55 +5 +6 тепло 1023.1 1018.9
З 4-10
{11}
20 км 3/3 600 м
[Cb cap]
+9.8 -8.4 27 +8 +9 тепло 1020.7 1016.6
З 1
{11}
20 км ясно +5.8 -9.4 33 +6 +6 тепло 1022.7 1018.6 +10.0 0.8
В 1 20 км ясно +4.6 -12.3 28 +4 +4 по сезону 1024.7 1020.5
З 3 20 км ясно +4.0 -12.5 29 +1 +1 по сезону 1025.4 1021.2
З 1 20 км ясно +2.5 -13.9 29 +2 +2 по сезону 1026.2 1022.0
З 2 50 км ясно +1.7 -13.9 30 -1 -1 по сезону 1026.9 1022.6 -0.5
ЮЗ 2 50 км ясно +5.9 -12.1 26 +5 +8 тепло 1026.8 1022.6
ЮВ 4 50 км ясно +10.0 -8.3 27 +8 +13 тепло 1024.5 1020.4
ЮЗ 2 20 км ясно +13.1 -14.0 14 +13 +16 тепло 1022.4 1018.4
СЗ 2 50 км 1/0
[Ac lent]
+8.2 -11.0 24 +7 +7 тепло 1022.9 1018.7 +13.4
З 1 50 км 8/3 600 м
[Cb cap Ci sp]
+5.4 -9.0 35 +5 +5 тепло 1023.7 1019.5
З 2 50 км 8/0
[Ac trans Ci sp]
+1.3 -6.5 56 -2 -2 по сезону 1022.8 1018.5
З 2 50 км 10/3 600 м
[Sc As op]
+5.7 -10.3 31 +4 +4 по сезону 1021.5 1017.3
З 1 20 км 3/3 600 м
[Sc]
+0.1 -6.0 64 -1 -1 по сезону 1020.8 1016.6 +0.1
З 2 50 км 3/0
[Ac lent Ci sp]
+10.4 -8.9 25 +10 +12 тепло 1020.5 1016.4 -1.4
З 7-15
{15}
50 км 6/3 600 м
[Sc Cc]
+14.1 -8.7 20 +12 +14 тепло 1018.2 1014.2
З 6-11
{15}
20 км ясно +13.5 -9.3 20 +12 +13 тепло 1017.8 1013.8
Ю 2
{12}
20 км 1/0
[Ac lent]
+9.3 -9.6 25 +8 +8 тепло 1021.1 1017.0 +14.7
СЗ 1 20 км ясно +4.7 -7.8 40 +4 +4 по сезону 1023.8 1019.6
З 2 20 км 10/4 600 м
[Sc Ac lent Ci sp]
+1.5 -5.6 59 -1 -1 по сезону 1024.5 1020.3
штиль 0 20 км 10/3 600 м
[Sc Ac lent Ci]
+0.4 -5.1 67 -0 -0 по сезону 1025.3 1021.1
З 1 20 км ясно +0.4 -5.6 64 -1 -1 по сезону 1025.8 1021.6 +0.1
З 6-11
{13}
50 км ясно +9.9 -6.0 32 +7 +8 тепло 1026.1 1022.0 -1.8
ЮЗ 4-10
{16}
50 км ясно +14.3 -8.2 20 +13 +18 тепло 1025.1 1021.1
Местоположение метеостанции Рудная Пристань (Приморский край, Россия): широта 44.37 долгота 135.80 высота над уровнем моря 34 м.
В архиве по умолчанию представлена погода в Рудной Пристани за последнюю неделю. Архивные данные за месяц целиком и за предыдущие месяцы, начиная с января 2011 года, Вы можете получить, выбрав интересующий диапазон дат из раскрывающегося списка и нажав кнопку "Найти!".
*Определитесь, кто Вы:
Внимание! Время в таблицах - всемирное. Для получения местного времени необходимо прибавить поправку, которая равна 10 ч.
Смотрите также архив погоды в соседних городах и на ближайших метеорологических станциях:
Партнеры нашего сайта:      
Пояснения к столбцам:
  • Ветер - указаны скорость ветра в м/с - средняя за 10 мин, порывы в срок и между сроками (в фигурных скобках) и направление, откуда дует ветер: С - северный,
  • СВ - северо-восточный, В - восточный, ЮВ - юго-восточный, Ю - южный, ЮЗ - юго-западный, З - западный, СЗ - северо-западный.
  • Видимость - горизонтальная дальность видимости в метрах или километрах. При видимости от 1 до 10 км при отсутствии осадков обычно наблюдается дымка, при ухудшении видимости до 1 км и менее - туман. В сухую погоду видимость может ухудшаться дымом, пылью или мглою.
  • Явления - указаны атмосферные явления, наблюдавшиеся в срок или в последний час перед сроком; фигурными скобками обозначены явления, наблюдавшиеся между сроками (за 1-3 часа до срока); квадратными скобками обозначены град или гололедные отложения с указанием их диаметра в мм.
  • Облачность - указаны через наклонную черту общая и нижняя облачность в баллах и высота нижней границы облаков в метрах; квадратными скобками обозначены формы облаков: Ci - перистые, Cs - перисто-слоистые, Cc - перисто-кучевые, Ac - высококучевые, As - высокослоистые, Sc - слоисто-кучевые, Ns - слоисто-дождевые, Cu - кучевые, Cb - кучево-дождевые. Подробнее классификацию облаков см. в Атласе облаков (PDF).
  • T - Температура воздуха - температура, измеренная на высоте 2 м над землей.
  • Td - Температура точки росы - температура, при понижении до которой содержащийся в воздухе водяной пар достигнет насыщения.
  • f - Относительная влажность воздуха - влажноcть воздуха, измеренная на высоте 2 м над землей.
  • Te - Эффективная температура - температура, которую ощущает одетый по сезону человек в тени. Характеристика душности погоды. При расчете учитывается влияние влажности воздуха и скорости ветра на теплоощущения человека.
  • Tes - Эффективная температура на солнце - температура, которую ощущает человек, с поправкой на солнечный нагрев. Характеристика знойности погоды. Зависит от высоты солнца над горизонтом, облачности и скорости ветра. Ночью, в пасмурную погоду, а также при ветре 12 м/с и более поправка равна нулю.
  • P - Атмосферное давление - приведенное к уровню моря атмосферное давление.
  • Po - Атмосферное давление - измеренное на уровне метеостанции атмосферное давление.
  • Tmin - Минимальная температура - минимум температуры воздуха на высоте 2 м над землей.
  • Tmax - Максимальная температура - максимум температуры воздуха на высоте 2 м над землей.
  • R - Количество осадков - Количество выпавших осадков за период времени, мм. При наведении курсора мыши на число - период времени, за который выпало указанное количество осадков.
  • R24 - Количество осадков - Количество выпавших осадков за 24 часа, мм.
  • S - Снежный покров - Высота снежного покрова, см. При наведении курсора мыши на число - состояние снежного покрова и степень покрытия местности в баллах.